Time,TemperatureF,DewpointF,PressureIn,WindDirection,WindDirectionDegrees,WindSpeedMPH,WindSpeedGustMPH,Humidity,HourlyPrecipIn,Conditions,Clouds,dailyrainin,SoftwareType,DateUTC
2013-02-22 00:02:00,26.0,-99.9,-100.00,SSE,154,0.0,0.0,-999,-99.99,,,-99.99,,2013-02-22 06:02:00,
2013-02-22 00:12:00,26.0,-99.9,-100.00,SSE,154,0.0,0.0,-999,-99.99,,,-99.99,,2013-02-22 06:12:00,
2013-02-22 00:22:00,26.0,-99.9,-100.00,SSE,154,0.0,0.0,-999,-99.99,,,-99.99,,2013-02-22 06:22:00,
2013-02-22 00:32:00,26.0,-99.9,-100.00,SSE,154,0.0,0.0,-999,-99.99,,,-99.99,,2013-02-22 06:32:00,
2013-02-22 00:42:00,26.0,-99.9,-100.00,SSE,154,0.0,0.0,-999,-99.99,,,-99.99,,2013-02-22 06:42:00,
2013-02-22 00:52:00,26.0,-99.9,-100.00,SSE,154,0.0,0.0,-999,-99.99,,,-99.99,,2013-02-22 06:52:00,
2013-02-22 01:01:00,26.0,-99.9,-100.00,SSE,154,0.0,0.0,-999,-99.99,,,-99.99,,2013-02-22 07:01:00,
2013-02-22 01:11:00,27.0,-99.9,-100.00,SSE,154,0.0,0.0,-999,-99.99,,,-99.99,,2013-02-22 07:11:00,
2013-02-22 01:22:00,27.0,-99.9,-100.00,SSE,154,0.0,0.0,-999,-99.99,,,-99.99,,2013-02-22 07:22:00,
2013-02-22 01:32:00,27.0,-99.9,-100.00,SSE,154,0.0,0.0,-999,-99.99,,,-99.99,,2013-02-22 07:32:00,
2013-02-22 01:42:00,27.0,-99.9,-100.00,SSE,154,0.0,0.0,-999,-99.99,,,-99.99,,2013-02-22 07:42:00,
2013-02-22 01:52:00,27.0,-99.9,-100.00,SSE,154,0.0,0.0,-999,-99.99,,,-99.99,,2013-02-22 07:52:00,
2013-02-22 02:01:00,27.0,-99.9,-100.00,SSE,154,0.0,0.0,-999,-99.99,,,-99.99,,2013-02-22 08:01:00,
2013-02-22 02:11:00,27.0,-99.9,-100.00,SSE,154,0.0,0.0,-999,-99.99,,,-99.99,,2013-02-22 08:11:00,
2013-02-22 02:21:00,27.0,-99.9,-100.00,SSE,154,0.0,0.0,-999,-99.99,,,-99.99,,2013-02-22 08:21:00,
2013-02-22 02:32:00,27.0,-99.9,-100.00,SSE,154,0.0,0.0,-999,-99.99,,,-99.99,,2013-02-22 08:32:00,
2013-02-22 02:42:00,27.0,-99.9,-100.00,SSE,154,0.0,0.0,-999,-99.99,,,-99.99,,2013-02-22 08:42:00,
2013-02-22 02:52:00,28.0,-99.9,-100.00,SSE,154,0.0,0.0,-999,-99.99,,,-99.99,,2013-02-22 08:52:00,
2013-02-22 03:03:00,28.0,-99.9,-100.00,SSE,154,0.0,0.0,-999,-99.99,,,-99.99,,2013-02-22 09:03:00,
2013-02-22 03:11:00,28.0,-99.9,-100.00,SSE,154,0.0,0.0,-999,-99.99,,,-99.99,,2013-02-22 09:11:00,
2013-02-22 03:22:00,28.0,-99.9,-100.00,SSE,154,0.0,0.0,-999,-99.99,,,-99.99,,2013-02-22 09:22:00,
2013-02-22 03:32:00,29.0,-99.9,-100.00,SSE,154,0.0,0.0,-999,-99.99,,,-99.99,,2013-02-22 09:32:00,
2013-02-22 03:42:00,29.0,-99.9,-100.00,SSE,154,0.0,0.0,-999,-99.99,,,-99.99,,2013-02-22 09:42:00,
2013-02-22 03:52:00,29.0,-99.9,-100.00,SSE,154,0.0,0.0,-999,-99.99,,,-99.99,,2013-02-22 09:52:00,
2013-02-22 04:02:00,29.0,-99.9,-100.00,SSE,154,0.0,0.0,-999,-99.99,,,-99.99,,2013-02-22 10:02:00,
2013-02-22 04:11:00,29.0,-99.9,-100.00,SSE,154,0.0,0.0,-999,-99.99,,,-99.99,,2013-02-22 10:11:00,
2013-02-22 04:22:00,29.0,-99.9,-100.00,SSE,154,0.0,0.0,-999,-99.99,,,-99.99,,2013-02-22 10:22:00,
2013-02-22 04:32:00,29.0,-99.9,-100.00,SSE,154,0.0,0.0,-999,-99.99,,,-99.99,,2013-02-22 10:32:00,
2013-02-22 04:42:00,30.0,-99.9,-100.00,SSE,154,0.0,0.0,-999,-99.99,,,-99.99,,2013-02-22 10:42:00,
2013-02-22 04:52:00,30.0,-99.9,-100.00,SSE,154,0.0,0.0,-999,-99.99,,,-99.99,,2013-02-22 10:52:00,
2013-02-22 05:01:00,30.0,-99.9,-100.00,SSE,154,0.0,0.0,-999,-99.99,,,-99.99,,2013-02-22 11:01:00,
2013-02-22 05:11:00,30.0,-99.9,-100.00,SSE,154,0.0,0.0,-999,-99.99,,,-99.99,,2013-02-22 11:11:00,
2013-02-22 05:22:00,30.0,-99.9,-100.00,SSE,154,0.0,0.0,-999,-99.99,,,-99.99,,2013-02-22 11:22:00,
2013-02-22 05:32:00,30.0,-99.9,-100.00,SSE,154,0.0,0.0,-999,-99.99,,,-99.99,,2013-02-22 11:32:00,
2013-02-22 05:42:00,30.0,-99.9,-100.00,SSE,154,0.0,0.0,-999,-99.99,,,-99.99,,2013-02-22 11:42:00,
2013-02-22 05:52:00,30.0,-99.9,-100.00,SSE,154,0.0,0.0,-999,-99.99,,,-99.99,,2013-02-22 11:52:00,
2013-02-22 06:02:00,30.0,-99.9,-100.00,SSE,154,0.0,0.0,-999,-99.99,,,-99.99,,2013-02-22 12:02:00,
2013-02-22 06:11:00,30.0,-99.9,-100.00,SSE,154,0.0,0.0,-999,-99.99,,,-99.99,,2013-02-22 12:11:00,
2013-02-22 06:22:00,30.0,-99.9,-100.00,SSE,154,0.0,0.0,-999,-99.99,,,-99.99,,2013-02-22 12:22:00,
2013-02-22 06:32:00,30.0,-99.9,-100.00,SSE,154,0.0,0.0,-999,-99.99,,,-99.99,,2013-02-22 12:32:00,
2013-02-22 06:42:00,30.0,-99.9,-100.00,SSE,154,0.0,0.0,-999,-99.99,,,-99.99,,2013-02-22 12:42:00,
2013-02-22 06:52:00,30.0,-99.9,-100.00,SSE,154,0.0,0.0,-999,-99.99,,,-99.99,,2013-02-22 12:52:00,
2013-02-22 07:02:00,30.0,-99.9,-100.00,SSE,154,0.0,0.0,-999,-99.99,,,-99.99,,2013-02-22 13:02:00,
2013-02-22 07:11:00,30.0,-99.9,-100.00,SSE,154,0.0,0.0,-999,-99.99,,,-99.99,,2013-02-22 13:11:00,
2013-02-22 07:22:00,30.0,-99.9,-100.00,SSE,154,0.0,0.0,-999,-99.99,,,-99.99,,2013-02-22 13:22:00,
2013-02-22 07:32:00,30.0,-99.9,-100.00,SSE,154,0.0,0.0,-999,-99.99,,,-99.99,,2013-02-22 13:32:00,
2013-02-22 07:42:00,31.0,-99.9,-100.00,SSE,154,0.0,0.0,-999,-99.99,,,-99.99,,2013-02-22 13:42:00,
2013-02-22 07:52:00,31.0,-99.9,-100.00,SSE,154,0.0,0.0,-999,-99.99,,,-99.99,,2013-02-22 13:52:00,
2013-02-22 08:01:00,31.0,-99.9,-100.00,SSE,154,0.0,0.0,-999,-99.99,,,-99.99,,2013-02-22 14:01:00,
2013-02-22 08:12:00,30.0,-99.9,-100.00,SSE,154,0.0,0.0,-999,-99.99,,,-99.99,,2013-02-22 14:12:00,
2013-02-22 08:22:00,30.0,-99.9,-100.00,SSE,154,0.0,0.0,-999,-99.99,,,-99.99,,2013-02-22 14:22:00,
2013-02-22 08:32:00,31.0,-99.9,-100.00,SSE,154,0.0,0.0,-999,-99.99,,,-99.99,,2013-02-22 14:32:00,
2013-02-22 08:42:00,31.0,-99.9,-100.00,SSE,154,0.0,0.0,-999,-99.99,,,-99.99,,2013-02-22 14:42:00,
2013-02-22 08:53:00,31.0,-99.9,-100.00,SSE,154,0.0,0.0,-999,-99.99,,,-99.99,,2013-02-22 14:53:00,
2013-02-22 09:02:00,31.0,-99.9,-100.00,SSE,154,0.0,0.0,-999,-99.99,,,-99.99,,2013-02-22 15:02:00,
2013-02-22 09:12:00,31.0,-99.9,-100.00,SSE,154,0.0,0.0,-999,-99.99,,,-99.99,,2013-02-22 15:12:00,
2013-02-22 09:22:00,31.0,-99.9,-100.00,SSE,154,0.0,0.0,-999,-99.99,,,-99.99,,2013-02-22 15:22:00,
2013-02-22 09:32:00,31.0,-99.9,-100.00,SSE,154,0.0,0.0,-999,-99.99,,,-99.99,,2013-02-22 15:32:00,
2013-02-22 09:42:00,31.0,-99.9,-100.00,SSE,154,0.0,0.0,-999,-99.99,,,-99.99,,2013-02-22 15:42:00,
2013-02-22 09:52:00,32.0,-99.9,-100.00,SSE,154,0.0,0.0,-999,-99.99,,,-99.99,,2013-02-22 15:52:00,
2013-02-22 10:02:00,31.0,-99.9,-100.00,SSE,154,0.0,0.0,-999,-99.99,,,-99.99,,2013-02-22 16:02:00,
2013-02-22 10:12:00,32.0,-99.9,-100.00,SSE,154,0.0,0.0,-999,-99.99,,,-99.99,,2013-02-22 16:12:00,
2013-02-22 10:22:00,32.0,-99.9,-100.00,SSE,154,0.0,0.0,-999,-99.99,,,-99.99,,2013-02-22 16:22:00,
2013-02-22 10:32:00,32.0,-99.9,-100.00,SSE,154,0.0,0.0,-999,-99.99,,,-99.99,,2013-02-22 16:32:00,
2013-02-22 10:42:00,32.0,-99.9,-100.00,SSE,154,0.0,0.0,-999,-99.99,,,-99.99,,2013-02-22 16:42:00,
2013-02-22 10:52:00,31.0,-99.9,-100.00,WSW,257,5.0,9.0,-999,-99.99,,,-99.99,,2013-02-22 16:52:00,
2013-02-22 11:01:00,33.0,-99.9,-100.00,WSW,254,0.0,8.0,-999,-99.99,,,-99.99,,2013-02-22 17:01:00,
2013-02-22 11:12:00,33.0,-99.9,-100.00,SW,215,0.0,6.0,-999,-99.99,,,-99.99,,2013-02-22 17:12:00,
2013-02-22 11:22:00,33.0,-99.9,-100.00,SW,215,0.0,6.0,-999,-99.99,,,-99.99,,2013-02-22 17:22:00,
2013-02-22 11:32:00,33.0,-99.9,-100.00,WNW,291,0.0,11.0,-999,-99.99,,,-99.99,,2013-02-22 17:32:00,
2013-02-22 11:42:00,35.0,-99.9,-100.00,West,274,4.0,10.0,-999,-99.99,,,-99.99,,2013-02-22 17:42:00,
2013-02-22 11:52:00,35.0,-99.9,-100.00,West,274,4.0,10.0,-999,-99.99,,,-99.99,,2013-02-22 17:52:00,
2013-02-22 12:02:00,37.0,-99.9,-100.00,West,264,0.0,9.0,-999,-99.99,,,-99.99,,2013-02-22 18:02:00,
2013-02-22 12:12:00,40.0,-99.9,-100.00,WNW,284,0.0,10.0,-999,-99.99,,,-99.99,,2013-02-22 18:12:00,
2013-02-22 12:23:00,40.0,-99.9,-100.00,WNW,284,0.0,10.0,-999,-99.99,,,-99.99,,2013-02-22 18:23:00,
2013-02-22 12:32:00,38.0,-99.9,-100.00,WNW,285,7.0,10.0,-999,-99.99,,,-99.99,,2013-02-22 18:32:00,
2013-02-22 12:42:00,38.0,-99.9,-100.00,WNW,285,7.0,10.0,-999,-99.99,,,-99.99,,2013-02-22 18:42:00,
2013-02-22 12:52:00,38.0,-99.9,-100.00,WSW,247,0.0,13.0,-999,-99.99,,,-99.99,,2013-02-22 18:52:00,
2013-02-22 13:01:00,42.0,-99.9,-100.00,WSW,258,2.0,15.0,-999,-99.99,,,-99.99,,2013-02-22 19:01:00,
2013-02-22 13:11:00,37.0,-99.9,-100.00,WNW,291,4.0,19.0,-999,-99.99,,,-99.99,,2013-02-22 19:11:00,
2013-02-22 13:21:00,37.0,-99.9,-100.00,WNW,291,4.0,19.0,-999,-99.99,,,-99.99,,2013-02-22 19:21:00,
2013-02-22 13:31:00,40.0,-99.9,-100.00,NW,305,0.0,19.0,-999,-99.99,,,-99.99,,2013-02-22 19:31:00,
2013-02-22 13:42:00,36.0,-99.9,-100.00,WNW,293,15.0,15.0,-999,-99.99,,,-99.99,,2013-02-22 19:42:00,
2013-02-22 13:52:00,36.0,-99.9,-100.00,WNW,293,15.0,15.0,-999,-99.99,,,-99.99,,2013-02-22 19:52:00,
2013-02-22 14:01:00,35.0,-99.9,-100.00,WSW,258,8.0,15.0,-999,-99.99,,,-99.99,,2013-02-22 20:01:00,
2013-02-22 14:11:00,35.0,-99.9,-100.00,WSW,258,8.0,15.0,-999,-99.99,,,-99.99,,2013-02-22 20:11:00,
2013-02-22 14:22:00,36.0,-99.9,-100.00,WNW,292,9.0,22.0,-999,-99.99,,,-99.99,,2013-02-22 20:22:00,
2013-02-22 14:32:00,34.0,-99.9,-100.00,WNW,300,10.0,16.0,-999,-99.99,,,-99.99,,2013-02-22 20:32:00,
2013-02-22 14:42:00,34.0,-99.9,-100.00,WNW,300,10.0,16.0,-999,-99.99,,,-99.99,,2013-02-22 20:42:00,
2013-02-22 14:52:00,34.0,-99.9,-100.00,SW,223,5.0,11.0,-999,-99.99,,,-99.99,,2013-02-22 20:52:00,
2013-02-22 15:02:00,34.0,-99.9,-100.00,NW,305,5.0,19.0,-999,-99.99,,,-99.99,,2013-02-22 21:02:00,
2013-02-22 15:11:00,33.0,-99.9,-100.00,WNW,300,6.0,16.0,-999,-99.99,,,-99.99,,2013-02-22 21:11:00,
2013-02-22 15:22:00,33.0,-99.9,-100.00,WNW,300,6.0,16.0,-999,-99.99,,,-99.99,,2013-02-22 21:22:00,
2013-02-22 15:32:00,32.0,-99.9,-100.00,West,268,6.0,15.0,-999,-99.99,,,-99.99,,2013-02-22 21:32:00,
2013-02-22 15:42:00,31.0,-99.9,-100.00,West,278,10.0,17.0,-999,-99.99,,,-99.99,,2013-02-22 21:42:00,
2013-02-22 15:52:00,31.0,-99.9,-100.00,West,278,10.0,17.0,-999,-99.99,,,-99.99,,2013-02-22 21:52:00,
2013-02-22 16:02:00,30.0,-99.9,-100.00,WSW,250,7.0,17.0,-999,-99.99,,,-99.99,,2013-02-22 22:02:00,
2013-02-22 16:11:00,30.0,-99.9,-100.00,WSW,250,7.0,17.0,-999,-99.99,,,-99.99,,2013-02-22 22:11:00,
2013-02-22 16:22:00,29.0,-99.9,-100.00,West,274,8.0,11.0,-999,-99.99,,,-99.99,,2013-02-22 22:22:00,
2013-02-22 16:32:00,29.0,-99.9,-100.00,WNW,285,9.0,15.0,-999,-99.99,,,-99.99,,2013-02-22 22:32:00,
2013-02-22 16:42:00,29.0,-99.9,-100.00,West,271,5.0,12.0,-999,-99.99,,,-99.99,,2013-02-22 22:42:00,
2013-02-22 16:52:00,29.0,-99.9,-100.00,West,271,5.0,12.0,-999,-99.99,,,-99.99,,2013-02-22 22:52:00,
2013-02-22 17:01:00,29.0,-99.9,-100.00,WNW,303,7.0,13.0,-999,-99.99,,,-99.99,,2013-02-22 23:01:00,
2013-02-22 17:11:00,28.0,-99.9,-100.00,WNW,292,7.0,14.0,-999,-99.99,,,-99.99,,2013-02-22 23:11:00,
2013-02-22 17:22:00,28.0,-99.9,-100.00,WNW,292,7.0,14.0,-999,-99.99,,,-99.99,,2013-02-22 23:22:00,
2013-02-22 17:32:00,28.0,-99.9,-100.00,NW,307,3.0,21.0,-999,-99.99,,,-99.99,,2013-02-22 23:32:00,
2013-02-22 17:42:00,28.0,-99.9,-100.00,NW,307,3.0,21.0,-999,-99.99,,,-99.99,,2013-02-22 23:42:00,
2013-02-22 17:52:00,26.0,-99.9,-100.00,West,278,6.0,13.0,-999,-99.99,,,-99.99,,2013-02-22 23:52:00,
2013-02-22 18:02:00,27.0,-99.9,-100.00,West,264,0.0,16.0,-999,-99.99,,,-99.99,,2013-02-23 00:02:00,
2013-02-22 18:11:00,26.0,-99.9,-100.00,West,264,0.0,0.0,-999,-99.99,,,-99.99,,2013-02-23 00:11:00,
2013-02-22 18:22:00,26.0,-99.9,-100.00,West,264,0.0,0.0,-999,-99.99,,,-99.99,,2013-02-23 00:22:00,
2013-02-22 18:32:00,26.0,-99.9,-100.00,West,264,0.0,0.0,-999,-99.99,,,-99.99,,2013-02-23 00:32:00,
2013-02-22 18:42:00,26.0,-99.9,-100.00,West,264,0.0,0.0,-999,-99.99,,,-99.99,,2013-02-23 00:42:00,
2013-02-22 18:52:00,26.0,-99.9,-100.00,West,264,0.0,0.0,-999,-99.99,,,-99.99,,2013-02-23 00:52:00,
2013-02-22 19:02:00,26.0,-99.9,-100.00,West,264,0.0,0.0,-999,-99.99,,,-99.99,,2013-02-23 01:02:00,
2013-02-22 19:11:00,26.0,-99.9,-100.00,West,264,0.0,0.0,-999,-99.99,,,-99.99,,2013-02-23 01:11:00,
2013-02-22 19:22:00,26.0,-99.9,-100.00,West,264,0.0,0.0,-999,-99.99,,,-99.99,,2013-02-23 01:22:00,
2013-02-22 19:32:00,26.0,-99.9,-100.00,West,264,0.0,0.0,-999,-99.99,,,-99.99,,2013-02-23 01:32:00,
2013-02-22 19:42:00,26.0,-99.9,-100.00,West,264,0.0,0.0,-999,-99.99,,,-99.99,,2013-02-23 01:42:00,
2013-02-22 19:52:00,26.0,-99.9,-100.00,West,264,0.0,0.0,-999,-99.99,,,-99.99,,2013-02-23 01:52:00,
2013-02-22 20:02:00,25.0,-99.9,-100.00,West,264,0.0,0.0,-999,-99.99,,,-99.99,,2013-02-23 02:02:00,
2013-02-22 20:11:00,26.0,-99.9,-100.00,West,264,0.0,0.0,-999,-99.99,,,-99.99,,2013-02-23 02:11:00,
2013-02-22 20:22:00,26.0,-99.9,-100.00,West,264,0.0,0.0,-999,-99.99,,,-99.99,,2013-02-23 02:22:00,
2013-02-22 20:32:00,26.0,-99.9,-100.00,West,264,0.0,0.0,-999,-99.99,,,-99.99,,2013-02-23 02:32:00,
2013-02-22 20:42:00,26.0,-99.9,-100.00,West,264,0.0,0.0,-999,-99.99,,,-99.99,,2013-02-23 02:42:00,
2013-02-22 20:52:00,26.0,-99.9,-100.00,West,264,0.0,0.0,-999,-99.99,,,-99.99,,2013-02-23 02:52:00,
2013-02-22 21:02:00,26.0,-99.9,-100.00,West,264,0.0,0.0,-999,-99.99,,,-99.99,,2013-02-23 03:02:00,
2013-02-22 21:11:00,26.0,-99.9,-100.00,West,264,0.0,0.0,-999,-99.99,,,-99.99,,2013-02-23 03:11:00,
2013-02-22 21:22:00,26.0,-99.9,-100.00,West,264,0.0,0.0,-999,-99.99,,,-99.99,,2013-02-23 03:22:00,
2013-02-22 21:32:00,26.0,-99.9,-100.00,West,264,0.0,0.0,-999,-99.99,,,-99.99,,2013-02-23 03:32:00,
2013-02-22 21:42:00,26.0,-99.9,-100.00,West,264,0.0,0.0,-999,-99.99,,,-99.99,,2013-02-23 03:42:00,
2013-02-22 21:52:00,26.0,-99.9,-100.00,West,264,0.0,0.0,-999,-99.99,,,-99.99,,2013-02-23 03:52:00,
2013-02-22 22:01:00,26.0,-99.9,-100.00,WNW,288,14.0,0.0,-999,-99.99,,,-99.99,,2013-02-23 04:01:00,
2013-02-22 22:11:00,26.0,-99.9,-100.00,WSW,246,0.0,11.0,-999,-99.99,,,-99.99,,2013-02-23 04:11:00,
2013-02-22 22:22:00,26.0,-99.9,-100.00,WSW,246,0.0,11.0,-999,-99.99,,,-99.99,,2013-02-23 04:22:00,
2013-02-22 22:32:00,25.0,-99.9,-100.00,WSW,246,0.0,0.0,-999,-99.99,,,-99.99,,2013-02-23 04:32:00,
2013-02-22 22:42:00,25.0,-99.9,-100.00,WSW,246,0.0,0.0,-999,-99.99,,,-99.99,,2013-02-23 04:42:00,
2013-02-22 22:52:00,25.0,-99.9,-100.00,WSW,246,0.0,0.0,-999,-99.99,,,-99.99,,2013-02-23 04:52:00,
2013-02-22 23:03:00,25.0,-99.9,-100.00,WSW,246,0.0,0.0,-999,-99.99,,,-99.99,,2013-02-23 05:03:00,
2013-02-22 23:12:00,25.0,-99.9,-100.00,WSW,246,0.0,0.0,-999,-99.99,,,-99.99,,2013-02-23 05:12:00,
2013-02-22 23:23:00,25.0,-99.9,-100.00,WSW,246,0.0,0.0,-999,-99.99,,,-99.99,,2013-02-23 05:23:00,
2013-02-22 23:33:00,25.0,-99.9,-100.00,WSW,246,0.0,0.0,-999,-99.99,,,-99.99,,2013-02-23 05:33:00,
2013-02-22 23:42:00,25.0,-99.9,-100.00,WSW,246,0.0,0.0,-999,-99.99,,,-99.99,,2013-02-23 05:42:00,
2013-02-22 23:52:00,25.0,-99.9,-100.00,WSW,246,0.0,0.0,-999,-99.99,,,-99.99,,2013-02-23 05:52:00,